FW2487 Weather Reports


Display with metric or nautical units.
time (UTC)temp
F
wind
direction
speed
MPH
gust
MPH
rain 1hr
in
rain 24hr
in
rain mn
in
humidity
%
barometer
mb
20260510060037 50 181 2.0 4.0 0.00 0.00 0.00 79 1017.0
20260510053143 51 141 3.0 5.0 0.00 0.00 0.00 78 1016.9
20260510051650 53 156 3.0 4.0 0.00 0.00 0.00 76 1016.9
20260510050036 54 162 2.0 4.0 0.00 0.00 0.00 74 1016.7
20260510044536 55 196 1.0 5.0 0.00 0.00 0.00 75 1016.6
20260510043036 56 163 4.0 5.0 0.00 0.00 0.00 75 1016.6
20260510041535 57 147 4.0 5.0 0.00 0.00 0.00 76 1016.4
20260510040036 59 156 4.0 5.0 0.00 0.00 0.00 74 1016.2
20260510034533 62 181 2.0 4.0 0.00 0.00 0.00 71 1016.1
20260510033035 63 188 1.0 3.0 0.00 0.00 0.00 68 1016.0
20260510031529 66 110 1.0 3.0 0.00 0.00 0.00 66 1015.9
20260510024607 68 157 2.0 3.0 0.00 0.00 0.00 61 1016.0
20260510023105 69 152 2.0 3.0 0.00 0.00 0.00 56 1016.0
20260510010034 75 308 2.0 5.0 0.00 0.00 0.00 35 1016.4
20260510004534 75 273 2.0 5.0 0.00 0.00 0.00 34 1016.4
20260510003034 75 310 4.0 8.0 0.00 0.00 0.00 38 1016.5
20260510001535 75 335 4.0 9.0 0.00 0.00 0.00 39 1016.5
20260510000035 76 11 5.0 9.0 0.00 0.00 0.00 40 1016.6
20260509234534 77 21 5.0 10.0 0.00 0.00 0.00 39 1016.8
20260509224537 75 4 4.0 8.0 0.00 0.00 0.00 42 1017.7
20260509221537 74 20 6.0 10.0 0.00 0.00 0.00 43 1018.2
20260509214535 73 21 6.0 10.0 0.00 0.00 0.00 46 1018.5
20260509213043 72 16 7.0 11.0 0.00 0.00 0.00 49 1018.7
20260509210152 72 2 3.0 9.0 0.00 0.00 0.00 48 1019.1
20260509204538 71 23 5.0 13.0 0.00 0.00 0.00 52 1019.2
20260509203036 70 344 4.0 11.0 0.00 0.00 0.00 52 1019.3
20260509200035 70 12 5.0 10.0 0.00 0.00 0.00 52 1019.7
20260509194534 70 40 4.0 10.0 0.00 0.00 0.00 52 1020.0
20260509193036 69 45 5.0 8.0 0.00 0.00 0.00 51 1020.1
20260509191534 69 43 4.0 9.0 0.00 0.00 0.00 50 1020.2
20260509190035 69 40 5.0 10.0 0.00 0.00 0.00 51 1020.4
20260509184531 68 61 5.0 8.0 0.00 0.00 0.00 50 1020.5
20260509183033 66 45 4.0 10.0 0.00 0.00 0.00 52 1020.7
20260509181536 65 328 3.0 8.0 0.00 0.00 0.00 52 1020.8
20260509180034 66 37 5.0 10.0 0.00 0.00 0.00 51 1020.8
20260509174535 66 18 4.0 8.0 0.00 0.00 0.00 49 1020.9
20260509173036 65 33 4.0 7.0 0.00 0.00 0.00 51 1020.8
20260509171611 62 313 3.0 7.0 0.00 0.00 0.00 53 1021.2
20260509163036 61 329 1.0 4.0 0.00 0.00 0.00 50 1021.4
20260509161534 59 357 1.0 3.0 0.00 0.00 0.00 54 1021.5
20260509160035 58 355 0.0 4.0 0.00 0.00 0.00 58 1021.5
20260509154535 57 66 0.0 3.0 0.00 0.00 0.00 59 1021.7
20260509153036 54 270 0.0 2.0 0.00 0.00 0.00 62 1021.7
20260509151533 53 223 0.0 2.0 0.00 0.00 0.00 68 1021.7
20260509144533 48 120 0.0 1.0 0.00 0.00 0.00 80 1021.7
20260509141537 41 202 0.0 0.0 0.00 0.00 0.00 89 1021.7
20260509134534 37 194 0.0 2.0 0.00 0.00 0.00 90 1021.4
20260509131535 37 123 2.0 5.0 0.00 0.00 0.00 90 1021.2
20260509123031 38 194 1.0 6.0 0.00 0.00 0.00 90 1020.9
20260509121535 37 161 3.0 5.0 0.00 0.00 0.00 89 1020.9
20260509120031 37 146 2.0 4.0 0.00 0.00 0.00 89 1020.9
20260509114606 38 150 2.0 4.0 0.00 0.00 0.00 89 1020.7
20260509113032 39 166 2.0 4.0 0.00 0.00 0.00 88 1020.8
20260509111533 39 177 0.0 2.0 0.00 0.00 0.00 88 1020.9
20260509110035 40 172 2.0 4.0 0.00 0.00 0.00 87 1020.9
20260509104643 41 160 2.0 6.0 0.00 0.00 0.00 86 1020.9
20260509101535 44 207 2.0 7.0 0.00 0.00 0.00 82 1021.2
20260509094534 42 168 2.0 6.0 0.00 0.00 0.00 85 1021.2
20260509093109 43 162 2.0 5.0 0.00 0.00 0.00 84 1021.4
20260509091642 43 62 2.0 5.0 0.00 0.00 0.00 83 1021.5
20260509090036 45 20 1.0 5.0 0.00 0.00 0.00 81 1021.6
20260509084609 46 136 2.0 6.0 0.00 0.00 0.00 80 1021.8
20260509083038 46 178 3.0 6.0 0.00 0.00 0.00 80 1022.0
20260509081536 47 163 1.0 4.0 0.00 0.00 0.00 78 1022.2
20260509080035 47 169 4.0 6.0 0.00 0.00 0.00 78 1022.3
20260509074533 47 164 3.0 9.0 0.00 0.00 0.00 78 1022.4
20260509073036 48 129 2.0 6.0 0.00 0.00 0.00 78 1022.5
20260509071536 48 183 5.0 7.0 0.00 0.00 0.00 78 1022.5
20260509070036 49 206 3.0 5.0 0.00 0.00 0.00 75 1022.6
20260509064533 54 201 2.0 4.0 0.00 0.00 0.00 66 1022.7
20260509061534 55 265 2.0 5.0 0.00 0.00 0.00 65 1022.7